Simultaneous Nadir Overpasses (SNOs) Predictions

Prediction of SNOs between FY3D and AQUA Satellite Orbit:

Table of predicted SNOs for the next 14.0 days since TLE Epoch: 9/12/2020
Index Date (FY3D) Time (FY3D) Lat,Lon (FY3D) SZA (FY3D ) Date (AQUA) Time (AQUA) Lat,Lon (AQUA) SZA (AQUA ) Distance(km) Time Diff (sec)
1 09/12/2020 06:02:04 -58.79, 127.02 69.69 09/12/2020 06:02:15 -58.79, 127.05 69.72 1.53 11
2 09/12/2020 06:50:50 65.31, -60.35 104.01 09/12/2020 06:49:46 65.31, -60.35 104.09 0.13 64
3 09/14/2020 22:18:37 -58.21,-117.44 68.27 09/14/2020 22:18:54 -58.22,-117.43 68.30 0.65 17
4 09/14/2020 23:07:21 64.85, 55.11 105.36 09/14/2020 23:06:23 64.85, 55.10 105.44 0.50 58
5 09/17/2020 14:35:09 -57.69, -1.86 66.90 09/17/2020 14:35:32 -57.69, -1.87 66.92 0.58 23
6 09/17/2020 15:23:50 64.50, 170.69 106.61 09/17/2020 15:22:58 64.49, 170.66 106.69 1.33 52
7 09/20/2020 06:52:04 -55.86, 112.96 64.32 09/20/2020 06:52:32 -55.87, 112.99 64.38 1.87 28
8 09/20/2020 07:40:40 62.98, -74.76 108.99 09/20/2020 07:39:53 62.99, -74.72 109.03 2.15 47
9 09/22/2020 23:08:31 -55.56,-131.29 63.17 09/22/2020 23:09:05 -55.56,-131.30 63.22 0.07 34
10 09/22/2020 23:57:06 62.74, 40.94 110.13 09/22/2020 23:56:25 62.74, 40.96 110.18 0.75 41
11 09/25/2020 15:25:23 -53.89, -16.29 60.79 09/25/2020 15:26:02 -53.90, -16.26 60.86 1.56 39
